EJU29LP LFLL-LEMH

Flight info

Callsign EJU29LP
Flight time 1h 5m
Altitude 33000
Route ROMAM A6 MTL DCT DIVKO DCT VATIR N852 VERSO L16 SARGO
Aircraft A319/M-SDE3FGHIRWY/LB1

Departure

Time 2026-04-23 11:36
Airport Lyon Saint-Exupéry Airport (LFLL)

Arrival

Time 2026-04-23 12:42
Airport Menorca Airport (LEMH)
Time Latitude Longitude Altitude Speed Heading
2026-04-23 11:15 45.72109 5.08176 797 ft 0 kts 304°
2026-04-23 11:24 45.72099 5.08196 796 ft 4 kts 306°
2026-04-23 11:24 45.72085 5.08225 796 ft 1 kts 299°
2026-04-23 11:24 45.72074 5.08254 797 ft 4 kts 307°
2026-04-23 11:25 45.72058 5.08266 797 ft 4 kts 17°
2026-04-23 11:25 45.72048 5.08262 797 ft 0 kts 15°
2026-04-23 11:27 45.72050 5.08263 797 ft 1 kts 15°
2026-04-23 11:27 45.72059 5.08267 797 ft 3 kts 16°
2026-04-23 11:27 45.72090 5.08282 797 ft 7 kts 19°
2026-04-23 11:27 45.72140 5.08306 798 ft 8 kts 17°
2026-04-23 11:28 45.72194 5.08318 798 ft 8 kts 358°
2026-04-23 11:28 45.72250 5.08336 798 ft 8 kts 42°
2026-04-23 11:28 45.72278 5.08403 799 ft 8 kts 45°
2026-04-23 11:28 45.72332 5.08417 799 ft 8 kts 358°
2026-04-23 11:29 45.72397 5.08406 797 ft 11 kts 355°
2026-04-23 11:29 45.72478 5.08397 796 ft 12 kts 354°
2026-04-23 11:29 45.72567 5.08386 796 ft 13 kts 355°
2026-04-23 11:29 45.72675 5.08374 791 ft 17 kts 355°
2026-04-23 11:30 45.72798 5.08360 791 ft 18 kts 355°
2026-04-23 11:30 45.72929 5.08344 789 ft 19 kts 355°
2026-04-23 11:30 45.73070 5.08326 787 ft 21 kts 355°
2026-04-23 11:30 45.73221 5.08307 785 ft 23 kts 355°
2026-04-23 11:31 45.73384 5.08288 781 ft 25 kts 355°
2026-04-23 11:31 45.73555 5.08269 780 ft 23 kts 356°
2026-04-23 11:31 45.73671 5.08259 778 ft 13 kts 11°
2026-04-23 11:31 45.73761 5.08256 776 ft 15 kts 334°
2026-04-23 11:32 45.73863 5.08227 776 ft 15 kts 357°
2026-04-23 11:32 45.73972 5.08219 775 ft 17 kts 357°
2026-04-23 11:32 45.74094 5.08238 772 ft 19 kts 13°
2026-04-23 11:32 45.74224 5.08281 772 ft 19 kts 13°
2026-04-23 11:33 45.74338 5.08353 771 ft 17 kts 53°
2026-04-23 11:33 45.74357 5.08452 772 ft 7 kts 84°
2026-04-23 11:33 45.74359 5.08474 772 ft 0 kts 84°
2026-04-23 11:33 45.74359 5.08480 772 ft 2 kts 84°
2026-04-23 11:34 45.74361 5.08510 772 ft 5 kts 86°
2026-04-23 11:34 45.74347 5.08587 772 ft 10 kts 119°
2026-04-23 11:34 45.74296 5.08641 773 ft 9 kts 163°
2026-04-23 11:34 45.74278 5.08644 773 ft 0 kts 179°
2026-04-23 11:35 45.74166 5.08656 773 ft 52 kts 175°
2026-04-23 11:36 45.73562 5.08733 781 ft 118 kts 175°
2026-04-23 11:36 45.72552 5.08868 806 ft 169 kts 174°
2026-04-23 11:36 45.71416 5.09009 1577 ft 159 kts 175°
2026-04-23 11:36 45.70313 5.09132 2306 ft 161 kts 174°
2026-04-23 11:37 45.69130 5.09294 2712 ft 180 kts 172°
2026-04-23 11:37 45.67854 5.09520 3236 ft 194 kts 172°
2026-04-23 11:37 45.66430 5.09762 3651 ft 218 kts 173°
2026-04-23 11:37 45.64849 5.09975 4276 ft 238 kts 174°
2026-04-23 11:38 45.63171 5.10195 5189 ft 243 kts 175°
2026-04-23 11:38 45.61478 5.10405 6130 ft 249 kts 175°
2026-04-23 11:38 45.59693 5.10600 6798 ft 265 kts 175°
2026-04-23 11:38 45.57808 5.10790 7580 ft 275 kts 175°
2026-04-23 11:39 45.55885 5.10971 8479 ft 279 kts 176°
2026-04-23 11:39 45.53927 5.11162 9363 ft 284 kts 175°
2026-04-23 11:39 45.51936 5.11371 10236 ft 289 kts 175°
2026-04-23 11:39 45.49870 5.11604 10721 ft 309 kts 175°
2026-04-23 11:40 45.47657 5.11866 11122 ft 327 kts 175°
2026-04-23 11:40 45.45386 5.12139 11831 ft 334 kts 175°
2026-04-23 11:40 45.43049 5.12420 12601 ft 340 kts 175°
2026-04-23 11:40 45.40675 5.12707 13373 ft 344 kts 175°
2026-04-23 11:41 45.38262 5.12997 14140 ft 349 kts 175°
2026-04-23 11:41 45.35824 5.13289 14836 ft 353 kts 175°
2026-04-23 11:41 45.33355 5.13587 15521 ft 357 kts 175°
2026-04-23 11:41 45.30899 5.13881 16197 ft 361 kts 175°
2026-04-23 11:42 45.28385 5.14183 16876 ft 364 kts 175°
2026-04-23 11:42 45.25847 5.14488 17553 ft 368 kts 175°
2026-04-23 11:42 45.23269 5.14797 18232 ft 372 kts 175°
2026-04-23 11:42 45.20670 5.15106 18850 ft 376 kts 175°
2026-04-23 11:43 45.18044 5.15417 19433 ft 380 kts 176°
2026-04-23 11:43 45.15394 5.15729 20005 ft 384 kts 176°
2026-04-23 11:43 45.12713 5.15922 20563 ft 387 kts 182°
2026-04-23 11:43 45.10051 5.15473 21125 ft 390 kts 194°
2026-04-23 11:44 45.07447 5.14322 21670 ft 392 kts 205°
2026-04-23 11:44 45.04973 5.12632 22243 ft 395 kts 208°
2026-04-23 11:44 45.02499 5.10888 22793 ft 399 kts 209°
2026-04-23 11:44 45.00024 5.09151 23354 ft 403 kts 209°
2026-04-23 11:45 44.97496 5.07385 23896 ft 407 kts 209°
2026-04-23 11:45 44.94943 5.05604 24343 ft 411 kts 209°
2026-04-23 11:45 44.92368 5.03809 24795 ft 414 kts 210°
2026-04-23 11:45 44.89772 5.01995 25236 ft 417 kts 210°
2026-04-23 11:46 44.87161 5.00173 25672 ft 420 kts 210°
2026-04-23 11:46 44.84532 4.98342 26103 ft 423 kts 210°
2026-04-23 11:46 44.81876 4.96502 26532 ft 426 kts 210°
2026-04-23 11:46 44.79211 4.94657 26955 ft 428 kts 211°
2026-04-23 11:47 44.76530 4.92800 27365 ft 431 kts 211°
2026-04-23 11:47 44.73823 4.90926 27755 ft 435 kts 211°
2026-04-23 11:47 44.71129 4.89059 28157 ft 437 kts 211°
2026-04-23 11:47 44.68391 4.87135 28568 ft 440 kts 212°
2026-04-23 11:48 44.65634 4.85178 28969 ft 443 kts 212°
2026-04-23 11:48 44.62875 4.83213 29348 ft 446 kts 212°
2026-04-23 11:48 44.60128 4.81259 29726 ft 449 kts 212°
2026-04-23 11:48 44.57244 4.79502 30096 ft 457 kts 204°
2026-04-23 11:49 44.54126 4.78378 30438 ft 466 kts 193°
2026-04-23 11:49 44.50875 4.77973 30752 ft 473 kts 184°
2026-04-23 11:49 44.47557 4.77980 31078 ft 476 kts 184°
2026-04-23 11:49 44.44234 4.77986 31407 ft 477 kts 184°
2026-04-23 11:50 44.40950 4.77983 31718 ft 479 kts 184°
2026-04-23 11:50 44.37612 4.77972 32056 ft 480 kts 184°
2026-04-23 11:50 44.34263 4.77957 32508 ft 479 kts 184°
2026-04-23 11:50 44.30942 4.77940 32952 ft 477 kts 184°
2026-04-23 11:51 44.27620 4.77923 33221 ft 477 kts 184°
2026-04-23 11:51 44.21102 4.77915 33272 ft 457 kts 184°
2026-04-23 11:52 44.14792 4.77911 33273 ft 452 kts 185°
2026-04-23 11:52 44.08518 4.77892 33275 ft 453 kts 185°
2026-04-23 11:53 44.02206 4.77876 33270 ft 453 kts 185°
2026-04-23 11:53 43.95890 4.77858 33273 ft 454 kts 185°
2026-04-23 11:54 43.89594 4.77849 33267 ft 454 kts 185°
2026-04-23 11:54 43.83261 4.77842 33264 ft 454 kts 185°
2026-04-23 11:55 43.76917 4.77837 33254 ft 455 kts 185°
2026-04-23 11:55 43.70623 4.77822 33246 ft 455 kts 185°
2026-04-23 11:56 43.64275 4.77801 33245 ft 455 kts 185°
2026-04-23 11:56 43.57925 4.77783 33248 ft 456 kts 185°
2026-04-23 11:57 43.51605 4.77772 33251 ft 456 kts 185°
2026-04-23 11:57 43.45245 4.77766 33250 ft 457 kts 185°
2026-04-23 11:58 43.38881 4.77749 33248 ft 457 kts 185°
2026-04-23 11:58 43.32504 4.77728 33257 ft 458 kts 185°
2026-04-23 11:59 43.27210 4.77725 33255 ft 458 kts 185°
2026-04-23 11:59 43.19802 4.77720 33260 ft 458 kts 185°
2026-04-23 12:00 43.13425 4.77705 33263 ft 458 kts 185°
2026-04-23 12:00 43.08108 4.77449 33263 ft 452 kts 194°
2026-04-23 12:01 43.02224 4.75055 33266 ft 437 kts 213°
2026-04-23 12:01 42.96930 4.71069 33260 ft 433 kts 216°
2026-04-23 12:02 42.91676 4.67093 33252 ft 433 kts 216°
2026-04-23 12:02 42.86386 4.63105 33252 ft 434 kts 216°
2026-04-23 12:03 42.81134 4.59149 33254 ft 433 kts 216°
2026-04-23 12:03 42.75845 4.55170 33247 ft 433 kts 216°
2026-04-23 12:04 42.70563 4.51199 33256 ft 433 kts 216°
2026-04-23 12:04 42.65281 4.47247 33249 ft 433 kts 216°
2026-04-23 12:05 42.60035 4.43317 33242 ft 433 kts 216°
2026-04-23 12:05 42.54747 4.39363 33243 ft 433 kts 215°
2026-04-23 12:06 42.49490 4.35445 33240 ft 433 kts 215°
2026-04-23 12:06 42.41548 4.29544 33242 ft 433 kts 215°
2026-04-23 12:07 42.36264 4.25623 33240 ft 433 kts 215°
2026-04-23 12:07 42.31007 4.21731 33238 ft 433 kts 215°
2026-04-23 12:08 42.25726 4.17834 33239 ft 432 kts 215°
2026-04-23 12:08 42.20436 4.13932 33232 ft 432 kts 215°
2026-04-23 12:09 42.15162 4.10042 33228 ft 431 kts 215°
2026-04-23 12:09 42.09926 4.06195 33227 ft 431 kts 214°
2026-04-23 12:10 42.04644 4.02324 33229 ft 431 kts 214°
2026-04-23 12:10 41.99373 3.98462 33222 ft 431 kts 214°
2026-04-23 12:11 41.94106 3.94662 33217 ft 433 kts 211°
2026-04-23 12:11 41.91266 3.93225 33220 ft 440 kts 200°
2026-04-23 12:11 41.88248 3.92386 33214 ft 444 kts 194°
2026-04-23 12:12 41.82196 3.91006 33218 ft 444 kts 194°
2026-04-23 12:12 41.76103 3.89604 33217 ft 443 kts 195°
2026-04-23 12:13 41.70017 3.88201 33216 ft 443 kts 195°
2026-04-23 12:13 41.63930 3.86799 33216 ft 444 kts 195°
2026-04-23 12:14 41.57842 3.85402 32932 ft 442 kts 195°
2026-04-23 12:14 41.54858 3.84722 32678 ft 439 kts 195°
2026-04-23 12:14 41.51851 3.84035 32415 ft 437 kts 195°
2026-04-23 12:15 41.48859 3.83351 32156 ft 436 kts 195°
2026-04-23 12:15 41.45878 3.82669 31887 ft 432 kts 195°
2026-04-23 12:15 41.42931 3.81995 31438 ft 429 kts 195°
2026-04-23 12:15 41.39986 3.81324 30968 ft 426 kts 195°
2026-04-23 12:16 41.37064 3.80658 30514 ft 424 kts 195°
2026-04-23 12:16 41.34156 3.79996 30019 ft 422 kts 195°
2026-04-23 12:16 41.31303 3.79342 29581 ft 419 kts 195°
2026-04-23 12:16 41.28446 3.78688 29152 ft 415 kts 195°
2026-04-23 12:17 41.25604 3.78038 28737 ft 412 kts 195°
2026-04-23 12:17 41.22788 3.77393 28314 ft 409 kts 195°
2026-04-23 12:17 41.19988 3.76757 27901 ft 406 kts 195°
2026-04-23 12:17 41.17190 3.76218 27470 ft 407 kts 188°
2026-04-23 12:18 41.14348 3.76291 27040 ft 410 kts 177°
2026-04-23 12:18 41.11545 3.77054 26596 ft 412 kts 167°
2026-04-23 12:18 41.08782 3.78071 26157 ft 410 kts 167°
2026-04-23 12:18 41.06034 3.79074 25683 ft 409 kts 167°
2026-04-23 12:19 41.03294 3.80064 25219 ft 408 kts 167°
2026-04-23 12:19 41.00551 3.81050 24752 ft 407 kts 168°
2026-04-23 12:19 40.97863 3.82015 24298 ft 406 kts 168°
2026-04-23 12:19 40.95136 3.82993 23822 ft 405 kts 168°
2026-04-23 12:20 40.92405 3.83975 23290 ft 404 kts 167°
2026-04-23 12:20 40.89701 3.84950 22836 ft 400 kts 167°
2026-04-23 12:20 40.87020 3.85918 22371 ft 397 kts 167°
2026-04-23 12:20 40.84363 3.86875 21924 ft 395 kts 167°
2026-04-23 12:21 40.81753 3.87817 21486 ft 392 kts 167°
2026-04-23 12:21 40.79128 3.88766 21047 ft 390 kts 167°
2026-04-23 12:21 40.76525 3.89703 20607 ft 387 kts 167°
2026-04-23 12:21 40.73927 3.90631 20175 ft 385 kts 167°
2026-04-23 12:22 40.71348 3.91551 19747 ft 383 kts 167°
2026-04-23 12:22 40.68785 3.92466 19317 ft 381 kts 167°
2026-04-23 12:22 40.66230 3.93380 18888 ft 379 kts 167°
2026-04-23 12:22 40.63696 3.94290 18463 ft 377 kts 167°
2026-04-23 12:23 40.61170 3.95199 18002 ft 375 kts 167°
2026-04-23 12:23 40.58661 3.96100 17590 ft 371 kts 167°
2026-04-23 12:23 40.56177 3.96985 17184 ft 368 kts 167°
2026-04-23 12:23 40.53750 3.97846 16790 ft 365 kts 167°
2026-04-23 12:24 40.51307 3.98714 16392 ft 362 kts 167°
2026-04-23 12:24 40.48883 3.99575 16019 ft 359 kts 168°
2026-04-23 12:24 40.46486 4.00429 15711 ft 354 kts 168°
2026-04-23 12:24 40.44116 4.01275 15395 ft 350 kts 168°
2026-04-23 12:25 40.41770 4.02113 15074 ft 346 kts 168°
2026-04-23 12:25 40.39454 4.02937 14762 ft 343 kts 168°
2026-04-23 12:25 40.37157 4.03752 14459 ft 340 kts 168°
2026-04-23 12:25 40.34886 4.04554 14158 ft 337 kts 168°
2026-04-23 12:26 40.32661 4.05339 13838 ft 334 kts 168°
2026-04-23 12:26 40.30427 4.06131 13530 ft 330 kts 168°
2026-04-23 12:26 40.28214 4.06913 13234 ft 328 kts 168°
2026-04-23 12:26 40.26019 4.07686 12942 ft 326 kts 168°
2026-04-23 12:27 40.23836 4.08457 12647 ft 324 kts 168°
2026-04-23 12:27 40.21657 4.09227 12351 ft 323 kts 168°
2026-04-23 12:27 40.19489 4.09993 12062 ft 322 kts 168°
2026-04-23 12:27 40.17327 4.10754 11769 ft 320 kts 167°
2026-04-23 12:28 40.15197 4.11503 11482 ft 319 kts 167°
2026-04-23 12:28 40.13031 4.12265 11189 ft 318 kts 167°
2026-04-23 12:28 40.10918 4.12926 10889 ft 315 kts 176°
2026-04-23 12:28 40.08778 4.12675 10568 ft 306 kts 202°
2026-04-23 12:29 40.06981 4.11320 10238 ft 295 kts 227°
2026-04-23 12:29 40.05786 4.09220 9974 ft 286 kts 246°
2026-04-23 12:29 40.04819 4.06951 9692 ft 286 kts 242°
2026-04-23 12:29 40.03710 4.04798 9425 ft 286 kts 237°
2026-04-23 12:30 40.02454 4.02784 9157 ft 286 kts 231°
2026-04-23 12:30 40.01051 4.00927 8890 ft 287 kts 226°
2026-04-23 12:30 39.99521 3.99259 8623 ft 287 kts 220°
2026-04-23 12:30 39.97875 3.97778 8356 ft 286 kts 215°
2026-04-23 12:31 39.96139 3.96500 8087 ft 285 kts 210°
2026-04-23 12:31 39.94330 3.95436 7820 ft 285 kts 204°
2026-04-23 12:31 39.92454 3.94594 7556 ft 285 kts 199°
2026-04-23 12:31 39.90570 3.93989 7294 ft 280 kts 193°
2026-04-23 12:32 39.88666 3.93606 7036 ft 274 kts 189°
2026-04-23 12:32 39.86783 3.93430 6793 ft 268 kts 184°
2026-04-23 12:32 39.84934 3.93481 6547 ft 263 kts 178°
2026-04-23 12:32 39.83120 3.93740 6184 ft 262 kts 173°
2026-04-23 12:33 39.81342 3.94193 5907 ft 258 kts 168°
2026-04-23 12:33 39.79631 3.94822 5661 ft 252 kts 163°
2026-04-23 12:33 39.78003 3.95604 5434 ft 246 kts 157°
2026-04-23 12:33 39.76469 3.96531 5216 ft 240 kts 152°
2026-04-23 12:34 39.75048 3.97572 5001 ft 234 kts 147°
2026-04-23 12:34 39.73705 3.98735 4786 ft 230 kts 142°
2026-04-23 12:34 39.72456 3.99999 4569 ft 225 kts 137°
2026-04-23 12:34 39.71310 4.01343 4363 ft 220 kts 133°
2026-04-23 12:35 39.70259 4.02754 4168 ft 214 kts 128°
2026-04-23 12:35 39.69309 4.04218 3975 ft 209 kts 124°
2026-04-23 12:35 39.68460 4.05721 3790 ft 203 kts 121°
2026-04-23 12:35 39.67719 4.07233 3602 ft 198 kts 116°
2026-04-23 12:36 39.67063 4.08778 3428 ft 193 kts 113°
2026-04-23 12:36 39.66495 4.10340 3262 ft 188 kts 110°
2026-04-23 12:36 39.66011 4.11916 3192 ft 187 kts 106°
2026-04-23 12:36 39.65792 4.13549 3116 ft 183 kts 87°
2026-04-23 12:37 39.65999 4.15137 3037 ft 180 kts 69°
2026-04-23 12:37 39.66598 4.16552 2949 ft 180 kts 52°
2026-04-23 12:37 39.67529 4.17636 2815 ft 181 kts 34°
2026-04-23 12:37 39.68703 4.18261 2699 ft 186 kts 15°
2026-04-23 12:38 39.69988 4.18529 2600 ft 187 kts 13°
2026-04-23 12:38 39.71273 4.18792 2506 ft 187 kts 13°
2026-04-23 12:38 39.72557 4.19055 2369 ft 187 kts 13°
2026-04-23 12:38 39.73844 4.19318 2199 ft 189 kts 13°
2026-04-23 12:39 39.75129 4.19581 2109 ft 182 kts 14°
2026-04-23 12:39 39.76333 4.19825 1983 ft 167 kts 14°
2026-04-23 12:39 39.77413 4.20045 1819 ft 149 kts 13°
2026-04-23 12:39 39.78399 4.20248 1636 ft 138 kts 14°
2026-04-23 12:40 39.79329 4.20440 1466 ft 134 kts 14°
2026-04-23 12:40 39.80235 4.20627 1287 ft 132 kts 15°
2026-04-23 12:40 39.81152 4.20816 1109 ft 133 kts 15°
2026-04-23 12:40 39.82065 4.21003 942 ft 130 kts 13°
2026-04-23 12:41 39.82935 4.21182 766 ft 127 kts 13°
2026-04-23 12:41 39.83812 4.21348 561 ft 131 kts 12°
2026-04-23 12:41 39.84705 4.21533 405 ft 129 kts 15°
2026-04-23 12:41 39.85562 4.21723 294 ft 113 kts 12°
2026-04-23 12:42 39.86197 4.21855 302 ft 68 kts 11°
2026-04-23 12:42 39.86474 4.21902 304 ft 30 kts 12°
2026-04-23 12:42 39.86574 4.21962 302 ft 14 kts 65°
2026-04-23 12:42 39.86565 4.22053 299 ft 5 kts 102°
2026-04-23 12:43 39.86565 4.22058 300 ft 0 kts 101°
2026-04-23 12:43 39.86562 4.22073 297 ft 5 kts 100°
2026-04-23 12:44 39.86552 4.22152 298 ft 12 kts 99°
2026-04-23 12:44 39.86538 4.22265 293 ft 7 kts 102°
2026-04-23 12:44 39.86502 4.22322 291 ft 10 kts 172°
2026-04-23 12:44 39.86454 4.22315 288 ft 7 kts 188°
2026-04-23 12:45 39.86429 4.22351 287 ft 8 kts 95°
2026-04-23 12:45 39.86425 4.22390 286 ft 0 kts 99°
2026-04-23 12:45 39.86425 4.22388 286 ft 0 kts 99°
2026-04-23 12:45 39.86425 4.22389 286 ft 0 kts 99°